Wind_Speed
18 18 18 19 19 19 20 20 20 21 21 22 23 24 26 28 30 33 37 40 43 46 48 51 54 56 55 54 53 51 46 42 42 41 40 41 42 43 43 44 44 45 46 48 50 51 50 49 49 49 50 49
19 19 19 19 20 21 21 22 22 23 23 23 24 25 26 26 27 29 31 34 38 42 45 47 50 54 56 57 56 56 54 51 49 47 45 43 43 44 44 45 45 47 49 51 52 51 51 50 50 50 50 50
21 21 21 22 22 23 23 24 24 25 25 25 26 27 27 28 29 29 30 30 32 36 40 44 48 51 54 56 58 59 59 59 58 58 56 50 47 47 46 46 48 49 51 53 53 51 52 51 49 48 49 49
24 24 24 24 25 25 25 26 26 27 27 27 28 28 29 30 31 31 32 32 32 32 34 38 42 47 51 54 57 60 61 62 63 63 62 57 52 51 49 49 50 51 51 52 53 53 52 51 49 47 47 47
28 27 27 27 27 28 28 28 28 28 29 29 29 30 30 31 32 32 33 33 33 33 32 33 35 40 46 50 54 57 61 63 64 64 61 59 59 56 54 54 53 50 49 50 52 52 51 50 50 48 46 45
30 30 30 30 30 31 31 31 31 31 31 31 31 31 31 32 33 33 34 34 34 34 34 33 32 33 37 43 49 54 57 61 64 63 59 58 60 58 58 60 58 53 50 50 50 50 50 51 51 49 48 46
33 33 33 33 33 34 34 34 34 34 33 33 33 33 33 34 34 34 34 35 35 35 35 34 34 32 32 34 39 45 52 57 60 63 62 61 58 53 57 62 62 58 54 53 50 49 50 52 52 52 52 49
36 36 36 36 36 36 36 36 36 36 36 35 35 35 35 35 36 36 36 36 35 35 35 35 35 34 33 32 32 35 41 48 54 59 62 64 60 53 56 60 61 60 59 59 57 54 53 53 53 53 53 52
39 39 38 38 38 39 38 38 38 38 38 38 37 37 37 38 38 38 38 37 37 36 36 35 35 34 34 33 32 32 32 36 43 52 57 62 62 57 58 59 57 59 61 61 59 59 56 52 52 52 52 54
42 42 42 42 41 41 41 41 41 40 40 40 39 39 39 39 40 40 40 39 39 38 37 36 36 35 34 34 33 33 32 32 34 40 47 56 60 60 60 56 52 52 54 52 50 53 53 49 50 50 48 50
45 44 44 44 44 44 44 44 43 42 42 42 41 41 41 41 41 41 41 41 40 40 39 38 37 36 36 35 34 33 33 33 32 33 36 44 52 60 63 60 56 54 52 51 49 49 49 46 45 46 47 44
48 47 47 47 47 47 47 47 46 45 44 44 43 43 43 43 43 43 42 42 42 41 40 40 39 38 37 36 35 34 33 33 33 33 33 34 39 50 60 65 65 62 58 57 59 59 56 51 49 49 50 46
50 50 49 49 49 49 49 48 48 47 46 46 45 45 45 44 44 44 44 43 43 43 42 41 41 40 39 38 37 37 36 34 33 34 34 33 33 36 46 59 68 71 69 65 65 66 62 60 61 59 57 54
51 51 50 51 51 51 51 50 49 49 48 47 47 46 46 46 45 45 45 45 44 44 43 42 42 42 41 40 39 38 38 37 36 35 35 35 34 33 35 42 54 66 73 74 73 71 67 66 67 67 66 64
51 51 51 50 51 51 51 50 50 49 49 49 48 47 47 47 46 46 46 46 46 45 45 44 43 43 42 42 41 40 40 39 39 38 37 37 36 36 35 35 38 46 56 67 74 77 76 75 74 74 74 72
51 51 51 50 50 50 50 50 50 49 49 49 49 48 48 47 47 47 46 46 46 46 46 45 45 44 43 43 42 42 42 41 41 40 40 40 39 38 38 37 36 37 41 47 56 64 70 74 77 78 79 79
51 51 51 51 50 50 49 49 49 49 49 48 49 48 48 48 47 47 47 47 46 46 46 46 45 45 44 44 43 43 43 42 42 42 42 42 42 41 40 40 39 38 39 40 42 46 52 59 65 69 73 76
51 51 51 51 50 49 49 48 48 48 48 48 48 48 48 48 48 48 48 47 47 47 46 46 46 46 46 45 45 44 44 44 44 44 44 43 43 43 43 42 42 41 41 41 41 42 43 46 50 54 58 62
51 51 51 50 50 50 49 48 48 47 47 47 47 47 47 48 48 48 48 48 48 47 47 47 46 46 46 46 46 46 46 46 46 45 45 45 45 45 45 45 44 44 44 44 44 44 44 44 46 48 50 53
51 51 50 50 50 50 50 49 48 48 47 47 47 47 47 47 48 48 48 48 48 48 48 47 47 47 46 46 47 47 47 47 47 47 47 47 47 47 47 46 46 46 46 46 46 46 46 46 46 47 48 50
51 51 51 50 50 50 50 50 49 49 48 48 48 47 47 47 48 48 48 48 48 48 48 48 48 47 47 47 47 47 48 48 48 48 49 49 49 49 49 48 48 48 48 48 48 49 49 48 48 48 48 49
51 51 51 50 50 49 49 50 50 50 49 49 49 48 48 48 48 48 48 48 48 48 48 48 49 49 48 48 48 48 48 49 49 49 50 50 50 50 50 50 50 50 50 50 50 50 50 51 50 50 51 51
50 50 50 50 50 49 49 49 50 50 50 49 49 49 49 49 49 49 49 49 49 49 49 49 49 49 49 49 49 49 49 49 49 50 50 51 51 51 51 52 52 52 51 51 52 52 52 52 52 52 53 53
49 49 50 50 50 50 49 49 49 50 50 50 49 49 50 50 50 50 50 50 50 49 49 49 49 49 49 50 50 50 50 50 50 50 51 51 52 52 52 53 53 53 53 53 53 53 53 53 54 54 54 55
48 49 49 49 49 49 49 49 49 49 50 50 50 50 50 50 50 50 50 50 49 49 49 49 49 49 49 49 50 50 50 50 51 51 51 52 52 53 53 54 54 54 54 54 54 54 54 54 55 55 55 56
48 48 48 48 48 48 48 48 49 49 50 50 50 50 50 50 50 50 50 49 49 48 48 48 48 48 49 49 49 49 50 50 51 51 52 52 53 53 54 54 55 56 56 55 55 55 55 55 55 55 56 57
49 48 48 48 48 48 49 49 49 49 50 50 50 50 50 50 50 50 49 49 49 48 48 48 48 49 49 49 49 49 50 50 50 51 52 52 53 54 54 55 55 56 57 57 57 57 57 56 56 56 56 57
48 48 48 48 47 48 48 48 49 49 49 49 49 49 49 49 49 49 49 49 49 48 48 48 49 49 49 50 50 50 50 50 50 50 51 51 52 53 53 54 55 55 56 57 57 58 58 58 58 57 57 57
47 47 47 46 46 46 46 47 47 47 48 48 48 48 48 48 48 48 48 48 48 47 47 47 47 48 48 49 49 49 50 50 50 50 51 51 51 52 52 53 53 54 55 55 56 57 57 58 58 58 57 57
46 45 45 45 45 45 45 44 45 45 45 46 46 46 46 46 46 46 46 46 46 46 46 45 45 45 46 46 46 47 47 48 48 48 49 50 50 51 51 51 52 52 53 54 54 55 56 57 57 58 58 58
44 44 43 43 43 43 43 43 43 43 44 44 44 45 45 45 45 45 45 45 45 44 44 44 43 43 44 44 44 44 44 44 45 45 46 47 47 48 49 49 50 50 51 51 52 53 54 55 56 57 57 58
Wind_Direction
282 283 285 287 289 291 292 292 292 292 292 292 292 291 290 288 285 283 280 277 274 272 269 265 262 260 259 257 255 253 253 257 260 263 268 270 271 272 273 274 274 275 278 280 281 280 280 280 278 278 279 279
284 286 288 289 290 292 293 294 295 296 297 297 297 297 297 296 296 293 290 286 281 277 274 271 267 264 260 258 256 253 250 253 255 258 263 267 269 269 271 273 274 276 280 282 280 278 278 280 279 277 278 279
285 287 288 289 289 290 291 292 293 294 296 297 298 299 299 299 299 298 297 295 291 285 279 274 272 269 266 261 258 256 253 252 253 256 261 264 266 266 268 270 272 276 281 282 279 276 277 279 278 278 278 277
286 286 286 286 287 288 289 290 291 292 293 295 296 297 298 299 299 299 299 298 297 294 289 282 276 272 270 267 262 258 256 254 254 256 260 263 264 266 269 270 272 277 280 279 277 275 276 276 276 278 278 277
284 285 284 284 285 285 286 287 289 290 292 293 295 296 297 298 298 298 299 298 298 297 296 292 285 279 273 270 267 263 260 257 256 257 261 265 266 267 270 271 273 276 276 275 275 274 274 274 275 276 277 276
282 282 282 282 283 284 285 286 287 289 290 292 293 295 296 297 298 298 298 298 298 298 297 296 293 289 282 275 270 267 264 261 259 257 258 263 266 268 271 272 273 272 272 272 271 272 272 272 272 273 275 275
279 279 279 279 280 282 284 285 286 287 288 290 291 292 294 295 297 298 298 298 298 298 297 297 295 294 292 286 278 272 268 264 262 259 256 256 260 266 271 272 271 269 269 270 269 269 270 269 268 270 272 273
276 276 276 276 277 279 281 282 283 285 286 287 288 290 292 293 295 296 297 298 298 299 298 298 297 295 294 294 291 284 275 269 265 262 258 256 256 260 268 270 270 268 268 270 270 269 269 269 268 269 270 270
273 273 273 273 274 275 276 278 279 281 282 284 285 287 289 290 292 294 295 297 298 298 299 299 298 297 296 295 295 294 290 282 273 266 261 258 255 254 259 266 269 268 267 270 272 270 269 270 268 268 269 269
271 271 271 272 272 272 273 274 275 276 278 279 281 282 284 286 288 290 292 294 295 296 298 298 299 299 298 297 296 296 296 295 288 278 268 262 257 252 253 260 266 264 262 263 266 268 266 267 269 268 269 269
270 270 270 271 271 272 272 272 273 273 275 276 277 278 280 282 284 286 288 290 291 293 295 296 297 298 298 298 298 297 296 297 297 293 284 272 261 254 250 253 260 264 267 265 264 266 263 263 267 267 267 268
270 270 270 270 270 271 272 272 272 273 273 274 275 276 277 279 280 282 284 286 288 289 291 293 294 295 296 297 298 298 297 297 297 297 297 290 276 263 253 250 253 259 265 267 266 267 265 262 265 266 265 264
270 269 269 270 270 270 271 271 272 272 273 273 274 274 275 276 278 279 281 282 284 286 288 289 291 292 293 294 295 296 297 297 297 296 297 297 293 281 266 256 253 254 257 260 262 266 267 265 266 267 266 265
271 270 270 269 270 270 270 271 271 272 273 273 273 273 274 275 276 277 278 280 281 283 284 285 287 288 290 291 292 293 294 295 295 295 295 295 296 294 286 273 263 259 258 258 260 263 265 265 266 267 267 269
272 271 271 270 270 270 270 271 271 272 273 273 273 273 274 274 275 276 277 278 279 280 281 282 284 285 286 287 288 289 290 291 292 292 293 293 294 294 293 289 281 273 267 264 263 264 266 266 267 268 268 270
274 273 272 271 270 270 271 271 271 272 272 273 273 273 274 274 275 275 276 276 277 279 280 280 281 282 283 284 284 285 286 287 288 289 290 291 291 291 291 291 290 287 281 276 271 268 268 269 269 270 270 271
275 274 273 273 272 271 271 271 271 272 272 272 273 273 274 274 274 275 275 275 276 277 278 278 279 280 280 281 281 282 283 283 284 285 287 288 288 288 289 289 289 289 288 287 283 279 275 273 272 272 272 271
275 275 274 274 273 273 272 272 272 272 271 272 272 273 273 274 274 274 274 275 275 275 276 277 277 278 278 279 279 280 280 280 281 281 282 283 284 285 286 287 287 287 287 287 287 286 284 281 279 278 277 275
274 274 274 274 274 274 274 273 273 272 272 272 272 272 273 274 274 274 274 274 275 275 275 276 276 277 277 278 278 278 279 279 279 279 279 280 281 281 282 283 284 285 285 286 285 285 285 285 284 283 283 281
272 273 273 274 275 275 275 275 274 274 273 273 272 273 273 273 274 274 274 274 275 275 275 275 275 276 276 277 277 278 278 279 279 278 278 279 279 279 279 280 281 282 282 283 284 284 283 283 283 283 283 282
272 273 273 274 275 275 275 275 275 275 275 274 274 274 274 274 274 274 274 274 274 275 275 276 276 276 276 277 277 278 278 279 279 279 279 279 279 279 279 278 279 279 280 281 282 282 282 283 282 282 282 282
273 273 274 275 275 275 275 275 275 275 275 275 275 274 274 274 274 274 274 274 274 275 276 276 277 277 278 278 278 278 279 279 279 279 279 279 279 279 279 279 279 279 278 279 280 280 281 282 282 282 282 282
273 274 275 275 276 276 276 275 275 275 275 275 275 275 275 275 275 275 275 275 275 276 276 277 278 278 279 279 279 280 280 280 280 280 280 280 280 280 280 280 280 279 279 279 279 279 279 280 281 281 281 281
274 274 275 276 276 276 276 276 275 275 275 275 275 275 275 275 275 276 276 277 277 277 278 278 279 279 280 280 280 280 280 280 280 280 280 280 280 280 281 281 281 280 280 280 280 280 279 280 280 280 280 281
274 274 275 275 276 276 276 276 276 275 275 275 275 275 275 276 276 276 277 277 278 278 279 279 280 280 280 281 281 281 281 281 281 281 281 281 281 281 281 281 281 282 281 281 281 281 281 281 281 281 281 281
274 273 273 273 274 274 275 275 276 276 276 276 276 276 276 277 277 277 277 278 278 278 278 279 279 280 280 281 281 281 281 282 282 282 282 282 282 281 282 282 282 282 282 282 282 282 282 281 281 281 281 281
274 274 273 273 273 274 275 275 276 277 277 278 278 279 279 279 279 279 279 280 280 280 280 280 280 281 281 281 282 282 282 282 282 282 282 282 282 282 282 282 282 282 282 282 282 282 282 282 282 282 282 282
275 275 275 275 276 276 276 277 277 278 279 280 280 281 281 281 281 282 282 282 282 283 283 283 283 283 283 284 284 284 284 284 284 284 284 283 283 283 282 282 282 282 282 282 283 283 282 282 282 282 282 282
276 277 277 277 277 278 278 278 279 280 281 281 282 283 283 283 284 284 284 284 284 284 284 285 285 285 285 285 285 285 285 285 285 285 285 285 285 284 283 283 283 282 282 282 282 282 282 282 282 282 282 282
276 277 278 278 279 280 280 281 282 282 283 283 283 283 284 284 284 284 284 285 285 285 285 285 285 285 285 285 286 286 286 286 286 286 286 286 286 286 285 285 285 284 284 284 283 283 283 283 283 282 282 282
276 277 278 278 280 280 281 282 283 283 283 283 283 283 283 283 284 284 285 285 285 286 286 286 286 286 286 286 286 286 286 286 286 286 286 286 286 286 286 286 286 286 286 286 286 286 285 285 285 284 284 284
Height
5833 5832 5831 5831 5830 5830 5829 5829 5828 5827 5827 5826 5825 5825 5824 5823 5822 5821 5820 5819 5819 5818 5818 5817 5817 5817 5817 5818 5818 5819 5819 5817 5816 5816 5816 5815 5814 5814 5813 5813 5812 5812 5812 5812 5812 5811 5810 5811 5810 5809 5808 5807
5831 5830 5830 5829 5828 5827 5827 5826 5825 5824 5824 5823 5823 5822 5821 5820 5819 5818 5817 5816 5815 5814 5813 5813 5812 5812 5812 5812 5813 5813 5813 5813 5811 5811 5811 5811 5810 5810 5809 5809 5808 5808 5807 5807 5807 5806 5806 5806 5806 5805 5805 5804
5830 5829 5828 5827 5826 5825 5824 5823 5822 5822 5821 5820 5820 5819 5818 5817 5816 5815 5814 5813 5812 5811 5809 5808 5808 5807 5807 5807 5807 5807 5808 5807 5806 5806 5806 5806 5806 5806 5806 5805 5804 5804 5803 5802 5801 5801 5801 5800 5800 5800 5800 5799
5828 5827 5826 5825 5824 5823 5822 5821 5820 5819 5818 5817 5817 5816 5815 5814 5813 5811 5810 5809 5808 5807 5806 5804 5804 5803 5802 5801 5801 5801 5801 5802 5802 5802 5802 5802 5802 5802 5801 5800 5800 5799 5798 5797 5797 5796 5796 5795 5795 5795 5795 5794
5825 5824 5823 5822 5821 5820 5819 5818 5817 5816 5815 5814 5813 5812 5812 5811 5809 5808 5807 5806 5804 5803 5802 5801 5800 5798 5797 5796 5795 5795 5796 5796 5797 5798 5800 5799 5798 5797 5797 5796 5795 5795 5794 5792 5792 5791 5791 5790 5790 5789 5789 5788
5822 5821 5820 5819 5818 5817 5816 5815 5814 5813 5812 5811 5810 5809 5808 5807 5806 5805 5804 5802 5801 5799 5798 5797 5796 5794 5792 5791 5790 5789 5790 5790 5791 5794 5796 5795 5792 5793 5794 5792 5791 5791 5789 5788 5787 5786 5786 5785 5784 5784 5783 5783
5819 5818 5817 5816 5815 5814 5813 5812 5811 5810 5809 5807 5806 5806 5805 5804 5803 5802 5800 5799 5797 5796 5794 5793 5791 5790 5788 5787 5785 5784 5784 5784 5785 5787 5789 5789 5787 5790 5791 5787 5785 5785 5784 5783 5782 5781 5780 5779 5779 5779 5778 5778
5815 5814 5813 5812 5811 5810 5809 5808 5807 5806 5805 5804 5803 5802 5801 5800 5799 5798 5797 5795 5794 5792 5791 5789 5787 5786 5784 5783 5782 5780 5779 5778 5778 5779 5781 5782 5783 5787 5786 5780 5779 5779 5778 5777 5776 5775 5773 5774 5775 5774 5773 5773
5811 5810 5809 5808 5807 5806 5805 5804 5803 5802 5801 5800 5799 5798 5797 5796 5795 5794 5793 5792 5790 5788 5787 5785 5784 5782 5780 5779 5778 5776 5775 5774 5773 5772 5772 5774 5776 5780 5778 5774 5774 5772 5771 5771 5771 5769 5768 5770 5770 5769 5768 5768
5806 5805 5804 5803 5802 5801 5801 5800 5799 5798 5797 5796 5795 5794 5793 5792 5791 5790 5789 5788 5786 5785 5783 5782 5780 5778 5777 5775 5774 5773 5772 5770 5768 5767 5766 5766 5768 5770 5769 5768 5767 5765 5764 5765 5764 5763 5763 5764 5764 5764 5763 5762
5802 5801 5799 5798 5797 5796 5796 5795 5794 5793 5792 5792 5791 5790 5788 5787 5787 5786 5785 5783 5782 5781 5779 5778 5776 5774 5773 5772 5770 5769 5768 5766 5765 5763 5762 5761 5761 5761 5761 5761 5760 5759 5759 5758 5757 5758 5757 5758 5758 5758 5757 5756
5796 5795 5794 5793 5792 5791 5790 5790 5789 5788 5787 5787 5786 5785 5784 5783 5782 5781 5780 5779 5778 5776 5775 5774 5772 5771 5769 5768 5766 5765 5764 5763 5761 5759 5758 5756 5755 5755 5755 5755 5754 5753 5752 5751 5751 5751 5751 5751 5751 5751 5750 5749
5791 5790 5789 5788 5787 5786 5785 5785 5784 5783 5782 5782 5781 5780 5779 5778 5777 5776 5775 5774 5773 5772 5771 5769 5768 5767 5765 5764 5762 5761 5760 5758 5757 5756 5754 5753 5751 5751 5750 5749 5749 5747 5745 5745 5744 5743 5745 5745 5744 5744 5743 5742
5785 5784 5783 5783 5782 5781 5780 5779 5778 5778 5777 5776 5776 5775 5774 5773 5772 5771 5770 5769 5768 5767 5766 5765 5764 5762 5761 5759 5758 5757 5755 5754 5753 5752 5750 5749 5748 5747 5746 5745 5744 5742 5741 5740 5738 5737 5737 5737 5737 5737 5737 5736
5780 5779 5778 5777 5776 5775 5774 5774 5773 5772 5771 5771 5770 5769 5769 5768 5767 5766 5765 5764 5763 5762 5761 5760 5759 5757 5756 5755 5754 5752 5751 5750 5748 5747 5746 5745 5743 5742 5741 5740 5739 5738 5736 5735 5734 5732 5731 5731 5731 5731 5730 5730
5775 5774 5773 5772 5771 5770 5769 5768 5768 5767 5766 5765 5764 5763 5763 5762 5762 5761 5760 5759 5758 5757 5756 5755 5754 5752 5751 5750 5749 5748 5746 5745 5744 5742 5741 5740 5739 5737 5736 5736 5735 5733 5731 5730 5729 5728 5726 5725 5724 5724 5724 5723
5770 5769 5768 5767 5766 5765 5764 5763 5762 5761 5760 5759 5758 5758 5757 5756 5756 5755 5754 5753 5752 5751 5750 5749 5748 5747 5746 5745 5744 5743 5741 5740 5739 5738 5736 5735 5734 5733 5731 5731 5730 5729 5727 5725 5724 5723 5721 5720 5718 5717 5716 5716
5765 5764 5763 5762 5761 5760 5759 5758 5757 5756 5755 5754 5753 5752 5751 5750 5750 5749 5748 5747 5747 5746 5745 5744 5743 5742 5740 5739 5738 5737 5736 5735 5734 5733 5731 5730 5729 5727 5726 5725 5724 5723 5722 5721 5719 5718 5716 5715 5713 5711 5710 5709
5759 5758 5757 5756 5755 5754 5753 5752 5751 5750 5749 5748 5747 5746 5745 5745 5744 5743 5742 5741 5740 5740 5739 5738 5737 5736 5735 5734 5733 5732 5731 5730 5728 5727 5726 5725 5724 5722 5721 5720 5719 5718 5717 5715 5714 5713 5711 5710 5708 5706 5705 5703
5753 5753 5752 5751 5750 5749 5748 5747 5746 5745 5744 5743 5742 5741 5740 5739 5738 5737 5736 5735 5734 5733 5733 5732 5731 5730 5729 5728 5727 5726 5725 5724 5723 5722 5720 5719 5718 5717 5715 5714 5713 5712 5711 5710 5709 5707 5706 5705 5703 5702 5700 5699
5747 5747 5746 5745 5744 5744 5743 5741 5741 5739 5738 5737 5736 5735 5734 5733 5732 5731 5731 5729 5728 5727 5727 5726 5725 5724 5723 5722 5721 5720 5719 5718 5717 5716 5715 5713 5712 5711 5709 5708 5707 5706 5705 5704 5703 5701 5700 5699 5698 5696 5695 5693
5741 5740 5740 5739 5738 5738 5737 5736 5735 5734 5732 5731 5730 5729 5728 5727 5726 5725 5725 5724 5723 5722 5721 5720 5719 5718 5717 5716 5715 5714 5713 5712 5711 5710 5709 5708 5707 5705 5704 5703 5701 5700 5699 5698 5697 5695 5694 5693 5692 5690 5689 5687
5735 5734 5734 5733 5732 5731 5731 5730 5729 5728 5727 5725 5724 5723 5722 5721 5720 5720 5719 5718 5717 5716 5715 5714 5713 5712 5711 5710 5709 5708 5707 5706 5705 5704 5703 5702 5701 5699 5698 5697 5695 5694 5693 5692 5691 5690 5688 5687 5686 5684 5683 5681
5729 5728 5727 5727 5726 5725 5724 5724 5723 5722 5721 5720 5718 5717 5716 5715 5715 5714 5713 5712 5711 5710 5709 5708 5707 5706 5705 5704 5703 5702 5701 5700 5699 5698 5697 5696 5694 5693 5692 5691 5689 5688 5687 5686 5685 5684 5682 5681 5680 5678 5677 5675
5723 5722 5721 5720 5720 5719 5718 5718 5717 5716 5715 5714 5713 5712 5711 5710 5709 5708 5707 5706 5705 5704 5703 5702 5701 5700 5699 5698 5697 5696 5695 5694 5693 5692 5691 5689 5688 5687 5686 5684 5683 5682 5681 5680 5678 5677 5676 5675 5674 5672 5670 5669
5717 5717 5716 5715 5714 5713 5712 5712 5711 5710 5709 5708 5707 5706 5705 5704 5703 5702 5701 5700 5699 5698 5697 5696 5695 5694 5693 5692 5691 5690 5689 5688 5687 5686 5684 5683 5682 5681 5680 5678 5677 5675 5674 5673 5672 5671 5670 5669 5667 5666 5664 5662
5711 5710 5709 5708 5707 5707 5706 5705 5705 5704 5703 5702 5701 5700 5700 5698 5698 5696 5695 5694 5693 5692 5691 5690 5688 5688 5687 5686 5685 5684 5683 5682 5681 5679 5678 5677 5676 5674 5673 5672 5670 5669 5667 5666 5665 5664 5663 5662 5661 5660 5658 5656
5704 5703 5702 5702 5701 5700 5700 5699 5698 5698 5697 5696 5695 5694 5694 5693 5691 5690 5689 5688 5687 5686 5684 5683 5682 5681 5680 5679 5678 5677 5676 5675 5674 5673 5672 5670 5669 5668 5667 5665 5664 5662 5661 5659 5658 5657 5656 5655 5654 5653 5651 5649
5698 5697 5696 5695 5695 5694 5693 5693 5692 5691 5691 5690 5689 5688 5688 5687 5685 5684 5683 5682 5681 5680 5678 5677 5676 5675 5674 5673 5672 5671 5670 5668 5667 5666 5665 5664 5662 5661 5660 5658 5657 5655 5654 5652 5651 5649 5648 5647 5646 5645 5644 5642
5693 5692 5691 5690 5689 5688 5688 5687 5686 5686 5685 5684 5684 5683 5682 5681 5680 5679 5678 5677 5676 5674 5673 5672 5670 5669 5668 5667 5666 5665 5663 5662 5661 5660 5658 5657 5656 5654 5653 5651 5650 5648 5647 5645 5644 5642 5641 5639 5638 5637 5636 5634
5687 5687 5686 5685 5684 5683 5682 5682 5681 5680 5680 5679 5678 5677 5677 5675 5675 5674 5672 5671 5670 5669 5668 5666 5665 5664 5662 5661 5660 5659 5658 5656 5655 5654 5652 5651 5649 5648 5646 5645 5643 5642 5640 5638 5637 5635 5634 5632 5631 5629 5628 5626